Waarnemingen

Advertentie
Mijn weer
Groningen Eelde, Nederland (6280): temperatuur & dauwpunt: 23.04.2017 19:00:00 - 29.04.2017 19:00:00 (CEST)Groningen Eelde, Nederland (6280): temperatuur 5cm: 23.04.2017 19:00:00 - 29.04.2017 19:00:00 (CEST)Groningen Eelde, Nederland (6280): windsnelheid & windstoten: 23.04.2017 19:00:00 - 29.04.2017 19:00:00 (CEST)Groningen Eelde, Nederland (6280): windrichting: 23.04.2017 19:00:00 - 29.04.2017 19:00:00 (CEST)Groningen Eelde, Nederland (6280): luchtdruk: 23.04.2017 19:00:00 - 29.04.2017 19:00:00 (CEST)Groningen Eelde, Nederland (6280): zicht: 23.04.2017 19:00:00 - 29.04.2017 19:00:00 (CEST)Groningen Eelde, Nederland (6280): neerslag: 23.04.2017 19:00:00 - 29.04.2017 19:00:00 (CEST)
Datum & Tijd tt [°C] td [°C] tt 5cm [°C] ff [km/u] ff [kn] fx [km/u] fx [kn] dd ppp [hPa] vv [km] rr [mm]
29.04.2017 19:00:00 10,4 2,4 10,9 13 7 18 10 NNO 1018,1 10 0,0
29.04.2017 18:00:00 10,7 2,3 11,8 15 8 25 14 NNO 1018,2 10 0,0
29.04.2017 17:00:00 11,2 1,0 13,2 11 6 22 12 NNW 1018,1 10 0,0
29.04.2017 16:00:00 11,7 0,4 14,1 9 5 22 12 - 1018,3 10 0,0
29.04.2017 15:00:00 11,8 2,6 10,7 15 8 32 18 NNW 1018,4 10 0,0
29.04.2017 14:00:00 11,2 2,9 14,3 13 7 22 12 WNW 1018,3 10 0,0
29.04.2017 13:00:00 10,7 1,2 13,8 13 7 29 16 NW 1018,2 10 0,0
29.04.2017 12:00:00 9,7 1,6 10,1 13 7 25 14 NW 1018,2 10 0,0
29.04.2017 11:00:00 8,8 1,9 10,1 16 9 25 14 WNW 1018,2 10 0,0
29.04.2017 10:00:00 8,4 1,9 8,5 13 7 29 16 WNW 1017,9 10 0,0
29.04.2017 09:00:00 7,4 2,4 8,2 9 5 14 8 W 1017,6 10 0,0
29.04.2017 08:00:00 4,5 2,9 3,2 11 6 14 8 ZW 1017,3 10 0,0
29.04.2017 07:00:00 -0,2 -0,8 -2,8 9 5 11 6 ZW 1016,9 10 0,0
29.04.2017 06:00:00 -0,9 -1,2 -4,3 9 5 11 6 ZW 1016,7 10 0,0
29.04.2017 05:00:00 -1,1 -1,9 -4,0 9 5 14 8 ZW 1016,6 10 0,0
29.04.2017 04:00:00 -0,8 -1,4 -4,0 9 5 11 6 WZW 1016,5 10 0,0
29.04.2017 03:00:00 -0,4 -1,3 -3,0 9 5 11 6 ZW 1016,3 10 0,0
29.04.2017 02:00:00 0,4 -0,7 -2,8 8 4 11 6 WZW 1016,1 10 0,0
29.04.2017 01:00:00 1,7 -0,2 -2,1 5 3 11 6 W 1016,1 10 0,0
29.04.2017 00:00:00 2,9 0,7 -0,2 8 4 11 6 W 1015,9 10 0,0
28.04.2017 23:00:00 3,4 0,1 -0,1 8 4 11 6 W 1015,5 10 0,0
28.04.2017 22:00:00 6,0 1,8 5,1 11 6 18 10 WNW 1015,3 10 0,0
28.04.2017 21:00:00 6,3 2,0 4,9 9 5 22 12 WNW 1015,2 10 0,0
28.04.2017 20:00:00 7,9 1,9 7,1 15 8 22 12 NW 1014,6 10 0,0
28.04.2017 19:00:00 8,1 2,6 8,3 15 8 32 18 NW 1014,5 10 0,0
28.04.2017 18:00:00 8,1 2,8 8,4 24 13 32 18 NW 1014,1 10 0,0
28.04.2017 17:00:00 10,2 2,9 11,7 21 11 36 19 NW 1013,5 10 0,0
28.04.2017 16:00:00 9,8 3,9 10,9 24 13 36 19 NW 1013,3 10 0,0
28.04.2017 15:00:00 9,9 4,2 10,3 21 11 32 18 WNW 1012,9 10 0,0
28.04.2017 14:00:00 9,1 4,1 9,5 11 6 25 14 NW 1012,6 10 0,0
28.04.2017 13:00:00 8,8 4,1 10,5 24 13 32 18 NW 1012,6 10 0,0
28.04.2017 12:00:00 8,6 4,2 8,7 11 6 25 14 WNW 1012,7 10 0,0
28.04.2017 11:00:00 9,3 3,8 9,9 15 8 22 12 WNW 1012,5 10 0,0
28.04.2017 10:00:00 8,9 4,6 9,4 11 6 18 10 WNW 1012,5 10 0,0
28.04.2017 09:00:00 7,4 5,4 8,1 15 8 22 12 WZW 1012,3 10 0,0
28.04.2017 08:00:00 5,6 5,2 5,7 9 5 14 8 ZW 1012,3 9 0,0
28.04.2017 07:00:00 4,4 4,3 3,1 9 5 14 8 ZZW 1012,2 4,6 0,0
28.04.2017 06:00:00 4,5 4,3 3,6 9 5 18 10 ZZW 1012,1 4,9 0,0
28.04.2017 05:00:00 6,1 5,6 5,8 11 6 18 10 ZZW 1012,2 8 0,0
28.04.2017 04:00:00 5,9 5,3 5,6 13 7 22 12 ZZW 1012,4 8 0,0
28.04.2017 03:00:00 6,6 5,2 6,2 15 8 25 14 ZW 1012,4 10 0,0
28.04.2017 02:00:00 6,7 4,7 6,3 16 9 25 14 ZW 1012,7 10 0,0
28.04.2017 01:00:00 5,6 3,5 4,8 15 8 25 14 ZW 1012,9 10 0,0
28.04.2017 00:00:00 6,4 3,2 5,9 18 10 25 14 ZW 1013,2 10 0,0
27.04.2017 23:00:00 6,5 3,3 5,9 15 8 25 14 ZW 1013,6 10 0,0
27.04.2017 22:00:00 6,8 2,9 6,3 18 10 32 18 WZW 1013,8 10 0,0
27.04.2017 21:00:00 7,1 3,2 6,6 16 9 36 19 WZW 1013,7 10 0,0
27.04.2017 20:00:00 7,5 2,6 7,1 21 11 32 18 WZW 1013,9 10 0,0
27.04.2017 19:00:00 8,1 2,9 8,0 24 13 32 18 WZW 1013,9 10 0,0
27.04.2017 18:00:00 8,4 3,2 9,0 22 12 40 21 W 1014,1 10 0,0
27.04.2017 17:00:00 9,0 2,5 9,2 29 16 40 21 W 1014,3 10 0,0
27.04.2017 16:00:00 10,0 2,4 9,8 22 12 32 18 W 1014,4 10 0,0
27.04.2017 15:00:00 7,3 3,4 7,2 21 11 36 19 W 1014,8 10 0,0
27.04.2017 14:00:00 8,1 2,5 7,6 22 12 40 21 W 1015,1 10 0,1
27.04.2017 13:00:00 8,7 2,8 8,7 8 4 29 16 NW 1015,2 10 0,0
27.04.2017 12:00:00 8,2 3,3 9,1 16 9 36 19 WZW 1015,7 10 0,0
27.04.2017 11:00:00 8,0 0,0 9,9 16 9 29 16 WZW 1015,6 10 0,0
27.04.2017 10:00:00 7,5 3,2 9,2 11 6 22 12 WZW 1015,7 10 0,0
27.04.2017 09:00:00 4,8 2,1 5,0 8 4 14 8 W 1015,9 10 0,0
27.04.2017 08:00:00 1,4 0,1 0,8 5 3 11 6 W 1015,7 10 0,0
27.04.2017 07:00:00 -1,7 -2,1 -4,3 5 3 7 4 ZW 1015,3 10 0,0
27.04.2017 06:00:00 -1,3 -1,8 -5,8 4 2 7 4 W 1015,2 10 0,0
27.04.2017 05:00:00 -1,8 -2,3 -5,5 2 1 7 4 - 1015,2 10 0,0
27.04.2017 04:00:00 -0,7 -1,2 -4,5 4 2 4 2 WZW 1015,3 10 0,0
27.04.2017 03:00:00 -0,1 -1,1 -4,8 4 2 7 4 NW 1015,3 10 0,0
27.04.2017 02:00:00 0,2 -0,6 -4,2 4 2 7 4 W 1015,4 10 0,0
27.04.2017 01:00:00 -0,4 -1,1 -2,7 5 3 7 4 WZW 1015,5 10 0,0
27.04.2017 00:00:00 1,5 0,6 -2,3 5 3 7 4 ZW 1015,4 10 0,0
26.04.2017 23:00:00 2,3 0,6 -1,1 4 2 7 4 NW 1015,3 10 0,0
26.04.2017 22:00:00 3,6 1,1 0,6 9 5 11 6 NW 1015,0 10 0,0
26.04.2017 21:00:00 4,6 0,3 2,3 11 6 25 14 NNW 1014,6 10 0,0
26.04.2017 20:00:00 7,3 1,1 6,7 15 8 25 14 NNW 1014,1 10 0,0
26.04.2017 19:00:00 7,6 0,7 7,3 15 8 29 16 N 1013,7 10 0,0
26.04.2017 18:00:00 9,7 1,1 11,3 18 10 29 16 N 1013,4 10 0,0
26.04.2017 17:00:00 8,7 2,5 9,5 13 7 22 12 NO 1013,1 10 0,0
26.04.2017 16:00:00 7,1 2,1 6,4 11 6 36 19 Z 1013,0 10 1,0
26.04.2017 15:00:00 6,9 1,3 7,5 11 6 32 18 N 1013,0 10 0,0
26.04.2017 14:00:00 7,5 1,7 9,8 5 3 22 12 WZW 1012,7 10 0,0
26.04.2017 13:00:00 6,9 2,0 7,6 22 12 32 18 NNW 1012,7 10 0,0
26.04.2017 12:00:00 7,2 1,3 7,5 18 10 29 16 WNW 1012,1 10 0,0
26.04.2017 11:00:00 8,1 -0,2 10,8 8 4 18 10 NW 1011,6 10 0,0
26.04.2017 10:00:00 7,2 1,9 9,4 9 5 18 10 W 1011,4 10 0,0
26.04.2017 09:00:00 5,3 2,3 6,1 11 6 14 8 WZW 1011,2 10 0,0
26.04.2017 08:00:00 3,0 1,6 2,5 9 5 14 8 W 1010,7 10 0,1
26.04.2017 07:00:00 -0,8 -1,1 -4,5 4 2 11 6 Z 1010,4 4,7 0,0
26.04.2017 06:00:00 -2,3 -2,6 -4,3 8 4 11 6 ZZW 1010,0 10 0,0
26.04.2017 05:00:00 -1,5 -1,8 -4,0 5 3 7 4 ZW 1009,9 10 0,0
26.04.2017 04:00:00 0,3 -0,1 -2,8 5 3 11 6 WZW 1009,5 10 0,0
26.04.2017 03:00:00 1,3 0,5 -1,1 9 5 18 10 W 1009,7 10 0,0
26.04.2017 02:00:00 0,5 0,2 -1,3 8 4 14 8 ZW 1009,4 10 0,0
26.04.2017 01:00:00 1,5 0,8 -0,6 9 5 14 8 WZW 1009,4 10 0,0
26.04.2017 00:00:00 0,6 0,0 -0,7 9 5 14 8 ZW 1009,2 10 0,0
25.04.2017 23:00:00 1,0 0,3 -0,1 11 6 14 8 ZW 1009,0 10 0,0
25.04.2017 22:00:00 1,7 0,8 0,6 13 7 18 10 ZW 1008,9 10 0,0
25.04.2017 21:00:00 3,5 1,8 2,3 9 5 29 16 W 1008,6 10 0,0
25.04.2017 20:00:00 4,9 2,9 4,4 15 8 40 21 W 1008,4 10 1,1
25.04.2017 19:00:00 7,0 1,2 6,6 18 10 29 16 W 1008,2 10 0,0
25.04.2017 18:00:00 6,4 1,7 6,7 21 11 36 19 WNW 1008,3 10 0,0
25.04.2017 17:00:00 8,6 0,1 8,9 22 12 40 21 W 1008,0 10 0,0
25.04.2017 16:00:00 8,4 1,8 9,3 26 14 36 19 W 1007,9 10 0,1
25.04.2017 15:00:00 3,6 1,2 3,0 24 13 50 27 WNW 1008,4 10 1,1
25.04.2017 14:00:00 5,1 2,3 5,2 21 11 43 23 NNW 1007,9 10 0,1
25.04.2017 13:00:00 6,7 3,8 7,9 24 13 43 23 N 1007,1 10 0,1
25.04.2017 12:00:00 4,5 2,4 5,3 28 15 50 27 NW 1005,9 10 0,3
25.04.2017 11:00:00 6,8 2,1 7,4 22 12 43 23 WNW 1004,8 10 0,0
25.04.2017 10:00:00 5,5 2,1 5,9 26 14 36 19 W 1004,2 10 0,0
25.04.2017 09:00:00 5,3 2,8 5,5 15 8 29 16 W 1003,7 10 0,0
25.04.2017 08:00:00 4,1 1,9 3,8 21 11 29 16 WZW 1003,3 10 0,0
25.04.2017 07:00:00 1,8 1,1 0,0 11 6 14 8 ZW 1003,1 10 0,0
25.04.2017 06:00:00 2,7 1,7 1,8 16 9 29 16 W 1003,3 10 0,0
25.04.2017 05:00:00 2,6 1,9 1,4 8 4 25 14 W 1003,4 10 0,0
25.04.2017 04:00:00 4,2 3,3 3,9 22 12 43 23 WNW 1003,7 10 0,1
25.04.2017 03:00:00 4,1 4,1 2,9 8 4 11 6 ZW 1004,0 8 0,0
25.04.2017 02:00:00 3,9 3,6 2,8 5 3 11 6 WZW 1004,7 10 0,0
25.04.2017 01:00:00 4,8 4,3 4,3 8 4 11 6 ZW 1005,4 10 0,0
25.04.2017 00:00:00 5,4 4,7 5,1 9 5 14 8 ZW 1006,2 10 0,0
24.04.2017 23:00:00 5,6 5,0 5,2 8 4 11 6 WZW 1006,9 10 0,2
24.04.2017 22:00:00 5,9 5,5 5,7 4 2 11 6 - 1007,5 10 1,2
24.04.2017 21:00:00 6,1 5,5 6,0 8 4 22 12 WNW 1008,1 10 1,6
24.04.2017 20:00:00 6,7 5,4 6,6 11 6 22 12 NNW 1008,5 10 1,4
24.04.2017 19:00:00 7,9 7,3 7,9 11 6 22 12 NNW 1008,8 10 0,1
24.04.2017 18:00:00 8,9 7,0 9,0 15 8 25 14 WNW 1009,4 10 0,3
24.04.2017 17:00:00 8,6 7,0 8,8 15 8 29 16 W 1010,0 10 0,8
24.04.2017 16:00:00 8,8 7,1 8,7 22 12 40 21 W 1010,4 10 0,8
24.04.2017 15:00:00 10,1 7,4 10,4 26 14 36 19 WZW 1010,9 10 0,0
24.04.2017 14:00:00 10,7 7,6 11,0 22 12 40 21 WZW 1011,4 10 0,1
24.04.2017 13:00:00 11,2 6,0 11,4 28 15 40 21 WZW 1011,7 10 0,0
24.04.2017 12:00:00 10,5 6,6 10,5 24 13 47 25 WZW 1012,1 10 0,0
24.04.2017 11:00:00 10,4 6,6 9,8 24 13 47 25 WZW 1012,5 10 0,0
24.04.2017 10:00:00 10,4 6,0 9,4 31 17 47 25 WZW 1012,7 10 0,0
24.04.2017 09:00:00 8,2 3,8 8,0 31 17 43 23 ZW 1013,3 10 0,0
24.04.2017 08:00:00 7,6 3,0 7,1 29 16 43 23 ZW 1013,8 10 0,0
24.04.2017 07:00:00 6,4 2,5 5,4 24 13 36 19 ZW 1014,5 10 0,0
24.04.2017 06:00:00 5,3 2,5 4,8 18 10 29 16 ZZW 1015,5 10 0,0
24.04.2017 05:00:00 5,0 2,4 4,5 21 11 29 16 ZZW 1016,4 10 0,0
24.04.2017 04:00:00 4,4 2,3 3,5 15 8 25 14 ZZW 1017,7 10 0,0
24.04.2017 03:00:00 3,7 1,7 2,7 16 9 25 14 ZZW 1018,8 10 0,0
24.04.2017 02:00:00 3,3 1,4 2,3 15 8 18 10 ZZW 1019,9 10 0,0
24.04.2017 01:00:00 3,0 1,0 1,3 13 7 18 10 ZZW 1021,0 10 0,0
24.04.2017 00:00:00 2,5 0,4 -0,4 11 6 14 8 ZZW 1021,8 10 0,0
23.04.2017 23:00:00 1,7 -0,4 -1,8 8 4 11 6 ZZW 1022,5 10 0,0
23.04.2017 22:00:00 3,3 0,0 -1,3 9 5 11 6 ZW 1023,2 10 0,0
23.04.2017 21:00:00 5,5 0,8 1,4 5 3 18 10 WNW 1023,2 10 0,0
23.04.2017 20:00:00 7,6 1,9 6,8 9 5 29 16 NW 1023,7 10 0,0
23.04.2017 19:00:00 8,6 1,8 8,3 18 10 32 18 WNW 1024,0 10 0,0

tt = temperatuur
td = dauwpunt
tt 5cm = temperatuur 5cm
ff = windsnelheid
fx = windstoten
dd = windrichting
ppp = luchtdruk
vv = zicht
rr = neerslag

Weerstations in de omgeving